| time (UTC) | temp F | wind direction | speed MPH | gust MPH | rain 1hr in | rain 24hr in | rain mn in | humidity % | barometer mb |
| 20260901192903 | 98 | 270 | 1.0 | 1.0 | 0.00 | 0.00 | 0.00 | 37 | 1016.5 |
| 20260901192359 | 96 | 291 | 1.0 | 1.0 | 0.00 | 0.00 | 0.00 | 38 | 1016.4 |
| 20260901191855 | 97 | 251 | 1.0 | 1.0 | 0.00 | 0.00 | 0.00 | 38 | 1016.4 |
| 20260901191351 | 100 | 264 | 2.0 | 3.0 | 0.00 | 0.00 | 0.00 | 35 | 1016.7 |
| 20260901190847 | 98 | 261 | 2.0 | 3.0 | 0.00 | 0.00 | 0.00 | 37 | 1016.7 |
| 20260901190346 | 100 | 262 | 1.0 | 1.0 | 0.00 | 0.00 | 0.00 | 35 | 1016.6 |
| 20260901185845 | 100 | 316 | 2.0 | 3.0 | 0.00 | 0.00 | 0.00 | 35 | 1016.7 |
| 20260901185344 | 99 | 32 | 2.0 | 4.0 | 0.00 | 0.00 | 0.00 | 37 | 1016.8 |
| 20260901184839 | 96 | 94 | 4.0 | 5.0 | 0.00 | 0.00 | 0.00 | 38 | 1016.7 |
| 20260901184335 | 97 | 191 | 3.0 | 4.0 | 0.00 | 0.00 | 0.00 | 39 | 1016.9 |
| 20260901183830 | 98 | 268 | 0.0 | 0.0 | 0.00 | 0.00 | 0.00 | 37 | 1017.1 |
| 20260901183329 | 101 | 263 | 2.0 | 3.0 | 0.00 | 0.00 | 0.00 | 35 | 1016.9 |
| 20260901182826 | 99 | 250 | 2.0 | 3.0 | 0.00 | 0.00 | 0.00 | 36 | 1017.1 |
| 20260901182325 | 97 | 236 | 5.0 | 5.0 | 0.00 | 0.00 | 0.00 | 38 | 1017.1 |
| 20260901181820 | 100 | 22 | 2.0 | 3.0 | 0.00 | 0.00 | 0.00 | 36 | 1017.1 |
| 20260901181315 | 100 | 284 | 4.0 | 5.0 | 0.00 | 0.00 | 0.00 | 34 | 1017.4 |
| 20260901180814 | 99 | 306 | 3.0 | 4.0 | 0.00 | 0.00 | 0.00 | 37 | 1017.5 |
| 20260901180314 | 96 | 263 | 1.0 | 1.0 | 0.00 | 0.00 | 0.00 | 41 | 1017.6 |
| 20260901175813 | 97 | 235 | 4.0 | 4.0 | 0.00 | 0.00 | 0.00 | 40 | 1017.7 |
| 20260901175308 | 99 | 230 | 5.0 | 5.0 | 0.00 | 0.00 | 0.00 | 37 | 1017.7 |
| 20260901174802 | 98 | 113 | 5.0 | 5.0 | 0.00 | 0.00 | 0.00 | 38 | 1017.7 |
| 20260901174258 | 98 | 236 | 3.0 | 4.0 | 0.00 | 0.00 | 0.00 | 38 | 1017.7 |
| 20260901173754 | 97 | 183 | 5.0 | 7.0 | 0.00 | 0.00 | 0.00 | 38 | 1017.8 |
| 20260901173254 | 99 | 198 | 4.0 | 8.0 | 0.00 | 0.00 | 0.00 | 38 | 1018.1 |
| 20260901172751 | 98 | 242 | 2.0 | 4.0 | 0.00 | 0.00 | 0.00 | 39 | 1018.1 |
| 20260901172250 | 98 | 242 | 0.0 | 0.0 | 0.00 | 0.00 | 0.00 | 40 | 1017.9 |
| 20260901171748 | 96 | 233 | 2.0 | 3.0 | 0.00 | 0.00 | 0.00 | 42 | 1018.2 |
| 20260901171248 | 97 | 304 | 3.0 | 4.0 | 0.00 | 0.00 | 0.00 | 41 | 1018.0 |
| 20260901170747 | 98 | 293 | 2.0 | 3.0 | 0.00 | 0.00 | 0.00 | 40 | 1018.3 |
| 20260901170246 | 97 | 327 | 3.0 | 3.0 | 0.00 | 0.00 | 0.00 | 41 | 1018.3 |
| 20260901165745 | 97 | 178 | 7.0 | 10.0 | 0.00 | 0.00 | 0.00 | 40 | 1018.1 |
| 20260901165240 | 96 | 288 | 2.0 | 3.0 | 0.00 | 0.00 | 0.00 | 42 | 1018.2 |
| 20260901164737 | 97 | 297 | 4.0 | 5.0 | 0.00 | 0.00 | 0.00 | 42 | 1018.5 |
| 20260901164232 | 97 | 192 | 6.0 | 7.0 | 0.00 | 0.00 | 0.00 | 42 | 1018.4 |
| 20260901163727 | 96 | 168 | 2.0 | 3.0 | 0.00 | 0.00 | 0.00 | 45 | 1018.6 |
| 20260901163226 | 95 | 264 | 3.0 | 3.0 | 0.00 | 0.00 | 0.00 | 44 | 1018.6 |
| 20260901162721 | 95 | 227 | 4.0 | 5.0 | 0.00 | 0.00 | 0.00 | 44 | 1018.8 |
| 20260901162221 | 95 | 211 | 6.0 | 7.0 | 0.00 | 0.00 | 0.00 | 43 | 1018.7 |
| 20260901161720 | 95 | 183 | 5.0 | 7.0 | 0.00 | 0.00 | 0.00 | 45 | 1018.6 |
| 20260901161215 | 95 | 285 | 2.0 | 3.0 | 0.00 | 0.00 | 0.00 | 46 | 1018.9 |
| 20260901160711 | 94 | 181 | 5.0 | 5.0 | 0.00 | 0.00 | 0.00 | 47 | 1018.7 |
| 20260901160206 | 93 | 191 | 4.0 | 5.0 | 0.00 | 0.00 | 0.00 | 47 | 1018.7 |
| 20260901155705 | 94 | 239 | 2.0 | 3.0 | 0.00 | 0.00 | 0.00 | 47 | 1018.6 |
| 20260901155200 | 93 | 290 | 1.0 | 1.0 | 0.00 | 0.00 | 0.00 | 48 | 1018.8 |
| 20260901154655 | 93 | 295 | 1.0 | 3.0 | 0.00 | 0.00 | 0.00 | 48 | 1018.6 |
| 20260901154150 | 91 | 274 | 2.0 | 4.0 | 0.00 | 0.00 | 0.00 | 51 | 1018.8 |
| 20260901153645 | 90 | 230 | 5.0 | 7.0 | 0.00 | 0.00 | 0.00 | 52 | 1018.7 |
| 20260901153140 | 90 | 189 | 7.0 | 11.0 | 0.00 | 0.00 | 0.00 | 52 | 1018.8 |
| 20260901152634 | 90 | 202 | 2.0 | 3.0 | 0.00 | 0.00 | 0.00 | 53 | 1018.8 |
| 20260901152132 | 89 | 208 | 2.0 | 3.0 | 0.00 | 0.00 | 0.00 | 54 | 1018.9 |
| 20260901151628 | 89 | 269 | 5.0 | 7.0 | 0.00 | 0.00 | 0.00 | 54 | 1018.8 |
| 20260901151127 | 89 | 145 | 4.0 | 5.0 | 0.00 | 0.00 | 0.00 | 54 | 1018.8 |
| 20260901150621 | 89 | 221 | 2.0 | 4.0 | 0.00 | 0.00 | 0.00 | 54 | 1018.8 |
| 20260901150120 | 89 | 200 | 5.0 | 7.0 | 0.00 | 0.00 | 0.00 | 54 | 1018.7 |
| 20260901145618 | 89 | 206 | 6.0 | 7.0 | 0.00 | 0.00 | 0.00 | 54 | 1018.7 |
| 20260901145117 | 88 | 217 | 5.0 | 5.0 | 0.00 | 0.00 | 0.00 | 56 | 1018.8 |
| 20260901144614 | 88 | 196 | 2.0 | 4.0 | 0.00 | 0.00 | 0.00 | 56 | 1018.6 |
| 20260901144109 | 87 | 231 | 4.0 | 4.0 | 0.00 | 0.00 | 0.00 | 57 | 1018.7 |
| 20260901143604 | 87 | 167 | 2.0 | 3.0 | 0.00 | 0.00 | 0.00 | 57 | 1018.9 |
| 20260901143100 | 86 | 207 | 4.0 | 4.0 | 0.00 | 0.00 | 0.00 | 58 | 1018.9 |
| 20260901142555 | 86 | 193 | 1.0 | 1.0 | 0.00 | 0.00 | 0.00 | 58 | 1018.9 |
| 20260901142054 | 85 | 230 | 2.0 | 3.0 | 0.00 | 0.00 | 0.00 | 59 | 1018.8 |
| 20260901141549 | 85 | 208 | 0.0 | 0.0 | 0.00 | 0.00 | 0.00 | 60 | 1018.8 |
| 20260901141044 | 86 | 224 | 0.0 | 0.0 | 0.00 | 0.00 | 0.00 | 59 | 1018.9 |
| 20260901140543 | 85 | 199 | 0.0 | 0.0 | 0.00 | 0.00 | 0.00 | 59 | 1019.0 |
| 20260901140038 | 85 | 249 | 0.0 | 0.0 | 0.00 | 0.00 | 0.00 | 61 | 1018.9 |
| 20260901135537 | 84 | 194 | 0.0 | 0.0 | 0.00 | 0.00 | 0.00 | 61 | 1018.7 |
| 20260901135033 | 84 | 207 | 0.0 | 0.0 | 0.00 | 0.00 | 0.00 | 61 | 1019.0 |
| 20260901134529 | 84 | 251 | 0.0 | 0.0 | 0.00 | 0.00 | 0.00 | 62 | 1019.0 |
| 20260901134028 | 83 | 224 | 0.0 | 0.0 | 0.00 | 0.00 | 0.00 | 63 | 1019.0 |
| 20260901133527 | 82 | 220 | 0.0 | 0.0 | 0.00 | 0.00 | 0.00 | 66 | 1018.8 |
| 20260901133027 | 81 | 208 | 0.0 | 0.0 | 0.00 | 0.00 | 0.00 | 67 | 1018.9 |
| 20260901132527 | 80 | 255 | 0.0 | 0.0 | 0.00 | 0.00 | 0.00 | 68 | 1018.7 |
| 20260901132026 | 79 | 209 | 0.0 | 0.0 | 0.00 | 0.00 | 0.00 | 71 | 1018.8 |
| 20260901131521 | 77 | 197 | 0.0 | 0.0 | 0.00 | 0.00 | 0.00 | 74 | 1018.7 |
| 20260901131016 | 76 | 272 | 0.0 | 0.0 | 0.00 | 0.00 | 0.00 | 77 | 1018.6 |
| 20260901130510 | 75 | 267 | 0.0 | 0.0 | 0.00 | 0.00 | 0.00 | 80 | 1018.6 |
| 20260901130009 | 73 | 270 | 0.0 | 0.0 | 0.00 | 0.00 | 0.00 | 83 | 1018.8 |
| 20260901125508 | 72 | 276 | 0.0 | 0.0 | 0.00 | 0.00 | 0.00 | 85 | 1018.6 |
| 20260901125008 | 71 | 258 | 0.0 | 0.0 | 0.00 | 0.00 | 0.00 | 87 | 1018.7 |
| 20260901124504 | 71 | 269 | 0.0 | 0.0 | 0.00 | 0.00 | 0.00 | 88 | 1018.5 |
| 20260901123958 | 70 | 268 | 0.0 | 0.0 | 0.00 | 0.00 | 0.00 | 88 | 1018.5 |
| 20260901123453 | 70 | 268 | 0.0 | 0.0 | 0.00 | 0.00 | 0.00 | 89 | 1018.5 |
| 20260901122951 | 69 | 268 | 0.0 | 0.0 | 0.00 | 0.00 | 0.00 | 90 | 1018.3 |
| 20260901122450 | 69 | 250 | 0.0 | 0.0 | 0.00 | 0.00 | 0.00 | 90 | 1018.4 |
| 20260901121945 | 69 | 263 | 0.0 | 0.0 | 0.00 | 0.00 | 0.00 | 90 | 1018.2 |
| 20260901121440 | 69 | 263 | 0.0 | 0.0 | 0.00 | 0.00 | 0.00 | 90 | 1018.3 |
| 20260901120935 | 69 | 261 | 0.0 | 0.0 | 0.00 | 0.00 | 0.00 | 90 | 1018.3 |
| 20260901120434 | 69 | 261 | 0.0 | 0.0 | 0.00 | 0.00 | 0.00 | 90 | 1018.2 |
| 20260901115930 | 69 | 250 | 0.0 | 0.0 | 0.00 | 0.00 | 0.00 | 89 | 1018.0 |
| 20260901115430 | 69 | 253 | 0.0 | 0.0 | 0.00 | 0.00 | 0.00 | 88 | 1018.0 |
| 20260901114928 | 69 | 270 | 0.0 | 0.0 | 0.00 | 0.00 | 0.00 | 88 | 1017.8 |
| 20260901114423 | 70 | 278 | 0.0 | 0.0 | 0.00 | 0.00 | 0.00 | 87 | 1017.9 |
| 20260901113921 | 69 | 279 | 0.0 | 0.0 | 0.00 | 0.00 | 0.00 | 87 | 1017.7 |
| 20260901113420 | 69 | 280 | 0.0 | 0.0 | 0.00 | 0.00 | 0.00 | 87 | 1017.9 |
| 20260901112916 | 70 | 268 | 0.0 | 0.0 | 0.00 | 0.00 | 0.00 | 87 | 1017.7 |
| 20260901112411 | 70 | 268 | 0.0 | 0.0 | 0.00 | 0.00 | 0.00 | 87 | 1017.5 |
| 20260901111906 | 70 | 261 | 0.0 | 0.0 | 0.00 | 0.00 | 0.00 | 87 | 1017.7 |
| 20260901111404 | 70 | 267 | 0.0 | 0.0 | 0.00 | 0.00 | 0.00 | 86 | 1017.8 |
| 20260901110903 | 70 | 269 | 0.0 | 0.0 | 0.00 | 0.00 | 0.00 | 86 | 1017.7 |
| 20260901110359 | 70 | 269 | 0.0 | 0.0 | 0.00 | 0.00 | 0.00 | 86 | 1017.6 |
| 20260901105855 | 70 | 268 | 0.0 | 0.0 | 0.00 | 0.00 | 0.00 | 86 | 1017.4 |
| 20260901105350 | 70 | 269 | 0.0 | 0.0 | 0.00 | 0.00 | 0.00 | 85 | 1017.5 |
| 20260901104846 | 70 | 265 | 0.0 | 0.0 | 0.00 | 0.00 | 0.00 | 85 | 1017.5 |
| 20260901104341 | 70 | 266 | 0.0 | 0.0 | 0.00 | 0.00 | 0.00 | 85 | 1017.5 |
| 20260901103837 | 71 | 271 | 0.0 | 0.0 | 0.00 | 0.00 | 0.00 | 85 | 1017.4 |
| 20260901103336 | 70 | 272 | 0.0 | 0.0 | 0.00 | 0.00 | 0.00 | 85 | 1017.4 |
| 20260901102832 | 70 | 272 | 0.0 | 0.0 | 0.00 | 0.00 | 0.00 | 85 | 1017.4 |
| 20260901102331 | 70 | 270 | 0.0 | 0.0 | 0.00 | 0.00 | 0.00 | 85 | 1017.3 |
| 20260901101827 | 70 | 275 | 0.0 | 0.0 | 0.00 | 0.00 | 0.00 | 85 | 1017.4 |
| 20260901101327 | 70 | 267 | 0.0 | 0.0 | 0.00 | 0.00 | 0.00 | 84 | 1017.4 |
| 20260901100826 | 70 | 268 | 0.0 | 0.0 | 0.00 | 0.00 | 0.00 | 84 | 1017.2 |
| 20260901100321 | 70 | 267 | 0.0 | 0.0 | 0.00 | 0.00 | 0.00 | 84 | 1017.4 |
| 20260901095820 | 70 | 267 | 0.0 | 0.0 | 0.00 | 0.00 | 0.00 | 84 | 1017.3 |
| 20260901095318 | 71 | 270 | 0.0 | 0.0 | 0.00 | 0.00 | 0.00 | 84 | 1017.4 |
| 20260901094812 | 70 | 275 | 0.0 | 0.0 | 0.00 | 0.00 | 0.00 | 84 | 1017.1 |
| 20260901094307 | 70 | 268 | 0.0 | 0.0 | 0.00 | 0.00 | 0.00 | 85 | 1017.3 |
| 20260901093802 | 70 | 261 | 0.0 | 0.0 | 0.00 | 0.00 | 0.00 | 85 | 1017.4 |
| 20260901093301 | 70 | 203 | 0.0 | 0.0 | 0.00 | 0.00 | 0.00 | 84 | 1017.1 |
| 20260901092757 | 70 | 288 | 0.0 | 0.0 | 0.00 | 0.00 | 0.00 | 85 | 1017.1 |
| 20260901092253 | 70 | 259 | 0.0 | 0.0 | 0.00 | 0.00 | 0.00 | 85 | 1017.2 |
| 20260901091748 | 70 | 266 | 0.0 | 0.0 | 0.00 | 0.00 | 0.00 | 85 | 1017.1 |
| 20260901091244 | 70 | 280 | 0.0 | 0.0 | 0.00 | 0.00 | 0.00 | 84 | 1017.1 |
| 20260901090744 | 70 | 283 | 0.0 | 0.0 | 0.00 | 0.00 | 0.00 | 84 | 1017.0 |
| 20260901090239 | 70 | 267 | 0.0 | 0.0 | 0.00 | 0.00 | 0.00 | 84 | 1017.1 |
| 20260901085734 | 70 | 273 | 0.0 | 0.0 | 0.00 | 0.00 | 0.00 | 83 | 1017.2 |
| 20260901085230 | 70 | 272 | 0.0 | 0.0 | 0.00 | 0.00 | 0.00 | 83 | 1017.1 |
| 20260901084726 | 70 | 257 | 0.0 | 0.0 | 0.00 | 0.00 | 0.00 | 82 | 1017.2 |
| 20260901084222 | 70 | 279 | 0.0 | 0.0 | 0.00 | 0.00 | 0.00 | 81 | 1016.8 |
| 20260901083717 | 70 | 271 | 0.0 | 0.0 | 0.00 | 0.00 | 0.00 | 82 | 1017.0 |
| 20260901083216 | 70 | 266 | 0.0 | 0.0 | 0.00 | 0.00 | 0.00 | 82 | 1016.9 |
| 20260901082715 | 71 | 285 | 0.0 | 0.0 | 0.00 | 0.00 | 0.00 | 82 | 1016.8 |
| 20260901082211 | 71 | 259 | 0.0 | 0.0 | 0.00 | 0.00 | 0.00 | 81 | 1016.9 |
| 20260901081706 | 71 | 279 | 0.0 | 0.0 | 0.00 | 0.00 | 0.00 | 82 | 1016.8 |
| 20260901081206 | 71 | 277 | 0.0 | 0.0 | 0.00 | 0.00 | 0.00 | 81 | 1016.8 |
| 20260901080701 | 70 | 271 | 0.0 | 0.0 | 0.00 | 0.00 | 0.00 | 82 | 1016.7 |
| 20260901080159 | 70 | 289 | 0.0 | 0.0 | 0.00 | 0.00 | 0.00 | 82 | 1016.8 |
| 20260901075655 | 71 | 272 | 0.0 | 0.0 | 0.00 | 0.00 | 0.00 | 82 | 1016.7 |
| 20260901075154 | 71 | 309 | 0.0 | 0.0 | 0.00 | 0.00 | 0.00 | 81 | 1016.8 |
| 20260901074654 | 71 | 275 | 0.0 | 0.0 | 0.00 | 0.00 | 0.00 | 81 | 1016.5 |
| 20260901074149 | 71 | 287 | 0.0 | 0.0 | 0.00 | 0.00 | 0.00 | 80 | 1016.7 |
| 20260901073645 | 71 | 347 | 0.0 | 0.0 | 0.00 | 0.00 | 0.00 | 79 | 1016.7 |
| 20260901073141 | 71 | 291 | 0.0 | 0.0 | 0.00 | 0.00 | 0.00 | 81 | 1016.8 |
| 20260901072636 | 71 | 319 | 0.0 | 0.0 | 0.00 | 0.00 | 0.00 | 81 | 1016.7 |
| 20260901072131 | 71 | 294 | 0.0 | 0.0 | 0.00 | 0.00 | 0.00 | 80 | 1016.7 |
| 20260901071631 | 71 | 275 | 0.0 | 0.0 | 0.00 | 0.00 | 0.00 | 79 | 1016.9 |
| 20260901071131 | 71 | 263 | 0.0 | 0.0 | 0.00 | 0.00 | 0.00 | 80 | 1016.7 |
| 20260901070625 | 71 | 228 | 0.0 | 0.0 | 0.00 | 0.00 | 0.00 | 79 | 1016.8 |
| 20260901070121 | 71 | 218 | 0.0 | 0.0 | 0.00 | 0.00 | 0.00 | 80 | 1016.6 |
| 20260901065614 | 71 | 268 | 0.0 | 0.0 | 0.00 | 0.00 | 0.00 | 81 | 1016.6 |
| 20260901065114 | 70 | 267 | 0.0 | 0.0 | 0.00 | 0.00 | 0.00 | 82 | 1016.8 |
| 20260901064612 | 70 | 243 | 0.0 | 0.0 | 0.00 | 0.00 | 0.00 | 82 | 1016.8 |
| 20260901064108 | 70 | 240 | 0.0 | 0.0 | 0.00 | 0.00 | 0.00 | 82 | 1016.8 |
| 20260901063604 | 70 | 236 | 0.0 | 0.0 | 0.00 | 0.00 | 0.00 | 82 | 1016.7 |
| 20260901063100 | 70 | 278 | 0.0 | 0.0 | 0.00 | 0.00 | 0.00 | 82 | 1016.8 |
| 20260901062555 | 70 | 265 | 0.0 | 0.0 | 0.00 | 0.00 | 0.00 | 82 | 1017.0 |
| 20260901062052 | 70 | 277 | 0.0 | 0.0 | 0.00 | 0.00 | 0.00 | 82 | 1016.8 |
| 20260901061548 | 70 | 276 | 0.0 | 0.0 | 0.00 | 0.00 | 0.00 | 82 | 1016.7 |
| 20260901061043 | 70 | 270 | 0.0 | 0.0 | 0.00 | 0.00 | 0.00 | 82 | 1016.7 |
| 20260901060543 | 70 | 262 | 0.0 | 0.0 | 0.00 | 0.00 | 0.00 | 82 | 1016.8 |
| 20260901060038 | 70 | 273 | 0.0 | 0.0 | 0.00 | 0.00 | 0.00 | 82 | 1017.0 |
| 20260901055533 | 70 | 267 | 0.0 | 0.0 | 0.00 | 0.00 | 0.00 | 82 | 1016.7 |
| 20260901055030 | 70 | 278 | 0.0 | 0.0 | 0.00 | 0.00 | 0.00 | 81 | 1016.7 |
| 20260901054526 | 70 | 275 | 0.0 | 0.0 | 0.00 | 0.00 | 0.00 | 81 | 1016.7 |
| 20260901054022 | 70 | 264 | 0.0 | 0.0 | 0.00 | 0.00 | 0.00 | 81 | 1016.8 |
| 20260901053518 | 71 | 274 | 0.0 | 0.0 | 0.00 | 0.00 | 0.00 | 81 | 1016.7 |
| 20260901053014 | 71 | 273 | 0.0 | 0.0 | 0.00 | 0.00 | 0.00 | 80 | 1016.6 |
| 20260901052514 | 71 | 273 | 0.0 | 0.0 | 0.00 | 0.00 | 0.00 | 80 | 1016.8 |
| 20260901052014 | 71 | 253 | 0.0 | 0.0 | 0.00 | 0.00 | 0.00 | 80 | 1016.8 |
| 20260901051509 | 71 | 263 | 0.0 | 0.0 | 0.00 | 0.00 | 0.00 | 80 | 1016.7 |
| 20260901051007 | 71 | 279 | 0.0 | 0.0 | 0.00 | 0.00 | 0.00 | 80 | 1016.6 |
| 20260901050503 | 71 | 261 | 0.0 | 0.0 | 0.00 | 0.00 | 0.00 | 79 | 1016.5 |
| 20260901045958 | 71 | 284 | 0.0 | 0.0 | 0.00 | 0.00 | 0.00 | 79 | 1016.5 |
| 20260901045453 | 71 | 276 | 0.0 | 0.0 | 0.00 | 0.00 | 0.00 | 79 | 1016.6 |
| 20260901044948 | 71 | 263 | 0.0 | 0.0 | 0.00 | 0.00 | 0.00 | 79 | 1016.6 |
| 20260901044443 | 71 | 253 | 0.0 | 0.0 | 0.00 | 0.00 | 0.00 | 78 | 1016.6 |
| 20260901043939 | 71 | 262 | 0.0 | 0.0 | 0.00 | 0.00 | 0.00 | 78 | 1016.6 |
| 20260901043436 | 72 | 266 | 0.0 | 0.0 | 0.00 | 0.00 | 0.00 | 78 | 1016.6 |
| 20260901042935 | 72 | 277 | 0.0 | 0.0 | 0.00 | 0.00 | 0.00 | 77 | 1016.2 |
| 20260901042435 | 72 | 248 | 0.0 | 0.0 | 0.00 | 0.00 | 0.00 | 77 | 1016.6 |
| 20260901041930 | 72 | 265 | 0.0 | 0.0 | 0.00 | 0.00 | 0.00 | 77 | 1016.4 |
| 20260901041425 | 72 | 238 | 0.0 | 0.0 | 0.00 | 0.00 | 0.00 | 76 | 1016.5 |
| 20260901040925 | 72 | 256 | 0.0 | 0.0 | 0.00 | 0.00 | 0.00 | 76 | 1016.6 |
| 20260901040420 | 73 | 283 | 0.0 | 0.0 | 0.00 | 0.00 | 0.00 | 76 | 1016.4 |
| 20260901035919 | 72 | 281 | 0.0 | 0.0 | 0.00 | 0.00 | 0.00 | 76 | 1016.5 |
| 20260901035418 | 73 | 272 | 0.0 | 0.0 | 0.00 | 0.00 | 0.00 | 76 | 1016.2 |
| 20260901034917 | 73 | 284 | 0.0 | 0.0 | 0.00 | 0.00 | 0.00 | 75 | 1016.5 |
| 20260901034412 | 73 | 273 | 0.0 | 0.0 | 0.00 | 0.00 | 0.00 | 75 | 1016.4 |
| 20260901033907 | 73 | 277 | 0.0 | 0.0 | 0.00 | 0.00 | 0.00 | 75 | 1016.5 |
| 20260901033406 | 73 | 278 | 0.0 | 0.0 | 0.00 | 0.00 | 0.00 | 75 | 1016.3 |
| 20260901032904 | 73 | 255 | 0.0 | 0.0 | 0.00 | 0.00 | 0.00 | 74 | 1016.2 |
| 20260901032404 | 74 | 285 | 0.0 | 0.0 | 0.00 | 0.00 | 0.00 | 73 | 1016.3 |
| 20260901031859 | 74 | 238 | 0.0 | 0.0 | 0.00 | 0.00 | 0.00 | 73 | 1016.3 |
| 20260901031355 | 74 | 268 | 0.0 | 0.0 | 0.00 | 0.00 | 0.00 | 73 | 1016.5 |
| 20260901030854 | 74 | 272 | 0.0 | 0.0 | 0.00 | 0.00 | 0.00 | 72 | 1016.3 |
| 20260901030350 | 75 | 271 | 0.0 | 0.0 | 0.00 | 0.00 | 0.00 | 71 | 1016.2 |
| 20260901025848 | 75 | 281 | 0.0 | 0.0 | 0.00 | 0.00 | 0.00 | 71 | 1016.2 |
| 20260901025344 | 75 | 271 | 0.0 | 0.0 | 0.00 | 0.00 | 0.00 | 68 | 1016.1 |
| 20260901024838 | 75 | 258 | 0.0 | 0.0 | 0.00 | 0.00 | 0.00 | 69 | 1016.1 |
| 20260901024338 | 75 | 262 | 0.0 | 0.0 | 0.00 | 0.00 | 0.00 | 70 | 1015.9 |
| 20260901023836 | 75 | 272 | 0.0 | 0.0 | 0.00 | 0.00 | 0.00 | 69 | 1015.8 |
| 20260901023331 | 75 | 258 | 0.0 | 0.0 | 0.00 | 0.00 | 0.00 | 69 | 1015.6 |
| 20260901022826 | 76 | 268 | 0.0 | 0.0 | 0.00 | 0.00 | 0.00 | 69 | 1015.7 |
| 20260901022322 | 76 | 259 | 0.0 | 0.0 | 0.00 | 0.00 | 0.00 | 68 | 1015.7 |
| 20260901021817 | 76 | 279 | 0.0 | 0.0 | 0.00 | 0.00 | 0.00 | 68 | 1015.4 |
| 20260901021313 | 77 | 273 | 0.0 | 0.0 | 0.00 | 0.00 | 0.00 | 67 | 1015.4 |
| 20260901020808 | 77 | 245 | 0.0 | 0.0 | 0.00 | 0.00 | 0.00 | 67 | 1015.2 |
| 20260901020303 | 77 | 250 | 0.0 | 0.0 | 0.00 | 0.00 | 0.00 | 66 | 1015.2 |
| 20260901015803 | 77 | 286 | 0.0 | 0.0 | 0.00 | 0.00 | 0.00 | 66 | 1015.1 |
| 20260901015300 | 78 | 255 | 0.0 | 0.0 | 0.00 | 0.00 | 0.00 | 65 | 1015.3 |
| 20260901014759 | 78 | 240 | 0.0 | 0.0 | 0.00 | 0.00 | 0.00 | 64 | 1015.2 |
| 20260901014255 | 79 | 250 | 0.0 | 0.0 | 0.00 | 0.00 | 0.00 | 64 | 1015.1 |
| 20260901013751 | 79 | 277 | 0.0 | 0.0 | 0.00 | 0.00 | 0.00 | 63 | 1015.1 |
| 20260901013246 | 80 | 278 | 0.0 | 0.0 | 0.00 | 0.00 | 0.00 | 62 | 1015.0 |
| 20260901012741 | 80 | 269 | 0.0 | 0.0 | 0.00 | 0.00 | 0.00 | 61 | 1015.0 |
| 20260901012241 | 80 | 270 | 0.0 | 0.0 | 0.00 | 0.00 | 0.00 | 60 | 1014.9 |
| 20260901011737 | 81 | 290 | 0.0 | 0.0 | 0.00 | 0.00 | 0.00 | 59 | 1014.8 |
| 20260901011232 | 82 | 233 | 0.0 | 0.0 | 0.00 | 0.00 | 0.00 | 60 | 1014.7 |
| 20260901010726 | 83 | 284 | 0.0 | 0.0 | 0.00 | 0.00 | 0.00 | 57 | 1014.8 |
| 20260901010221 | 84 | 245 | 0.0 | 0.0 | 0.00 | 0.00 | 0.00 | 57 | 1014.9 |
| 20260901005719 | 84 | 285 | 0.0 | 0.0 | 0.00 | 0.00 | 0.00 | 53 | 1014.7 |
| 20260901005215 | 85 | 241 | 0.0 | 0.0 | 0.00 | 0.00 | 0.00 | 53 | 1014.8 |
| 20260901004715 | 86 | 286 | 0.0 | 0.0 | 0.00 | 0.00 | 0.00 | 52 | 1014.5 |
| 20260901004210 | 87 | 286 | 0.0 | 0.0 | 0.00 | 0.00 | 0.00 | 51 | 1014.8 |
| 20260901003709 | 89 | 280 | 0.0 | 0.0 | 0.00 | 0.00 | 0.00 | 46 | 1014.8 |
| 20260901003204 | 90 | 233 | 0.0 | 0.0 | 0.00 | 0.00 | 0.00 | 44 | 1014.5 |
| 20260901002702 | 91 | 226 | 0.0 | 0.0 | 0.00 | 0.00 | 0.00 | 42 | 1014.3 |
| 20260901002157 | 91 | 238 | 0.0 | 0.0 | 0.00 | 0.00 | 0.00 | 39 | 1014.5 |
| 20260901001653 | 92 | 257 | 1.0 | 1.0 | 0.00 | 0.00 | 0.00 | 40 | 1014.5 |
| 20260901001148 | 93 | 276 | 0.0 | 0.0 | 0.00 | 0.00 | 0.00 | 40 | 1014.3 |
| 20260901000644 | 94 | 236 | 0.0 | 0.0 | 0.00 | 0.00 | 0.00 | 37 | 1014.4 |
| 20260901000139 | 95 | 217 | 1.0 | 1.0 | 0.00 | 0.00 | 0.00 | 35 | 1014.5 |
| 20260831235638 | 95 | 244 | 1.0 | 1.0 | 0.00 | 0.00 | 0.00 | 36 | 1014.5 |
| 20260831235134 | 96 | 243 | 1.0 | 1.0 | 0.00 | 0.00 | 0.00 | 35 | 1014.4 |
| 20260831234633 | 96 | 205 | 4.0 | 5.0 | 0.00 | 0.00 | 0.00 | 33 | 1014.6 |
| 20260831234128 | 97 | 197 | 3.0 | 4.0 | 0.00 | 0.00 | 0.00 | 33 | 1014.7 |
| 20260831233624 | 97 | 204 | 6.0 | 10.0 | 0.00 | 0.00 | 0.00 | 32 | 1014.5 |
| 20260831233119 | 98 | 256 | 0.0 | 1.0 | 0.00 | 0.00 | 0.00 | 32 | 1014.6 |
| 20260831232614 | 97 | 195 | 3.0 | 3.0 | 0.00 | 0.00 | 0.00 | 32 | 1014.4 |
| 20260831232110 | 97 | 195 | 6.0 | 7.0 | 0.00 | 0.00 | 0.00 | 32 | 1014.6 |
| 20260831231606 | 97 | 161 | 2.0 | 3.0 | 0.00 | 0.00 | 0.00 | 33 | 1014.6 |
| 20260831231101 | 98 | 80 | 3.0 | 3.0 | 0.00 | 0.00 | 0.00 | 31 | 1014.6 |
| 20260831230557 | 98 | 187 | 3.0 | 4.0 | 0.00 | 0.00 | 0.00 | 31 | 1014.5 |
| 20260831230058 | 99 | 232 | 2.0 | 3.0 | 0.00 | 0.00 | 0.00 | 31 | 1014.5 |
| 20260831225553 | 99 | 212 | 3.0 | 4.0 | 0.00 | 0.00 | 0.00 | 29 | 1014.7 |
| 20260831225053 | 99 | 146 | 4.0 | 5.0 | 0.00 | 0.00 | 0.00 | 31 | 1014.6 |
| 20260831224548 | 100 | 126 | 4.0 | 4.0 | 0.00 | 0.00 | 0.00 | 30 | 1014.5 |
| 20260831224043 | 100 | 196 | 5.0 | 7.0 | 0.00 | 0.00 | 0.00 | 30 | 1014.3 |
| 20260831223538 | 102 | 260 | 4.0 | 5.0 | 0.00 | 0.00 | 0.00 | 28 | 1014.5 |
| 20260831223035 | 102 | 239 | 2.0 | 3.0 | 0.00 | 0.00 | 0.00 | 28 | 1014.5 |
| 20260831222531 | 100 | 259 | 0.0 | 0.0 | 0.00 | 0.00 | 0.00 | 30 | 1014.7 |
| 20260831222030 | 100 | 222 | 3.0 | 3.0 | 0.00 | 0.00 | 0.00 | 30 | 1014.7 |
| 20260831221526 | 102 | 247 | 0.0 | 1.0 | 0.00 | 0.00 | 0.00 | 29 | 1014.6 |
| 20260831221021 | 103 | 268 | 1.0 | 1.0 | 0.00 | 0.00 | 0.00 | 28 | 1014.7 |
| 20260831220516 | 102 | 265 | 2.0 | 3.0 | 0.00 | 0.00 | 0.00 | 27 | 1014.9 |
| 20260831220012 | 101 | 219 | 3.0 | 4.0 | 0.00 | 0.00 | 0.00 | 29 | 1014.7 |
| 20260831215507 | 100 | 204 | 4.0 | 5.0 | 0.00 | 0.00 | 0.00 | 30 | 1014.7 |
| 20260831215003 | 100 | 216 | 2.0 | 3.0 | 0.00 | 0.00 | 0.00 | 29 | 1014.8 |
| 20260831214500 | 101 | 202 | 3.0 | 4.0 | 0.00 | 0.00 | 0.00 | 30 | 1014.8 |
| 20260831213956 | 99 | 178 | 1.0 | 1.0 | 0.00 | 0.00 | 0.00 | 30 | 1014.9 |
| 20260831213452 | 99 | 355 | 2.0 | 3.0 | 0.00 | 0.00 | 0.00 | 30 | 1014.9 |
| 20260831212952 | 100 | 191 | 9.0 | 10.0 | 0.00 | 0.00 | 0.00 | 29 | 1014.9 |
| 20260831212449 | 102 | 164 | 7.0 | 10.0 | 0.00 | 0.00 | 0.00 | 28 | 1014.9 |
| 20260831211948 | 100 | 266 | 1.0 | 1.0 | 0.00 | 0.00 | 0.00 | 29 | 1014.8 |
| 20260831211444 | 100 | 184 | 8.0 | 11.0 | 0.00 | 0.00 | 0.00 | 29 | 1014.7 |
| 20260831210942 | 99 | 210 | 6.0 | 7.0 | 0.00 | 0.00 | 0.00 | 31 | 1015.1 |
| 20260831210438 | 101 | 198 | 4.0 | 4.0 | 0.00 | 0.00 | 0.00 | 31 | 1015.1 |
| 20260831205934 | 101 | 127 | 3.0 | 4.0 | 0.00 | 0.00 | 0.00 | 29 | 1015.2 |
| 20260831205429 | 102 | 223 | 4.0 | 5.0 | 0.00 | 0.00 | 0.00 | 29 | 1015.3 |
| 20260831204925 | 100 | 250 | 2.0 | 3.0 | 0.00 | 0.00 | 0.00 | 29 | 1015.1 |
| 20260831204424 | 103 | 301 | 3.0 | 4.0 | 0.00 | 0.00 | 0.00 | 28 | 1015.4 |
| 20260831203923 | 103 | 269 | 0.0 | 1.0 | 0.00 | 0.00 | 0.00 | 28 | 1015.3 |
| 20260831203418 | 102 | 260 | 1.0 | 1.0 | 0.00 | 0.00 | 0.00 | 29 | 1015.4 |
| 20260831202916 | 101 | 155 | 4.0 | 4.0 | 0.00 | 0.00 | 0.00 | 30 | 1015.4 |
| 20260831202412 | 100 | 273 | 2.0 | 3.0 | 0.00 | 0.00 | 0.00 | 29 | 1015.4 |
| 20260831201911 | 101 | 237 | 0.0 | 1.0 | 0.00 | 0.00 | 0.00 | 29 | 1015.4 |
| 20260831201410 | 100 | 210 | 2.0 | 4.0 | 0.00 | 0.00 | 0.00 | 31 | 1015.5 |
| 20260831200906 | 101 | 186 | 6.0 | 8.0 | 0.00 | 0.00 | 0.00 | 30 | 1015.7 |
| 20260831200401 | 100 | 107 | 6.0 | 7.0 | 0.00 | 0.00 | 0.00 | 30 | 1016.1 |
| 20260831195856 | 101 | 250 | 2.0 | 3.0 | 0.00 | 0.00 | 0.00 | 31 | 1015.6 |
| 20260831195352 | 101 | 257 | 1.0 | 1.0 | 0.00 | 0.00 | 0.00 | 30 | 1015.8 |
| 20260831194847 | 101 | 291 | 3.0 | 4.0 | 0.00 | 0.00 | 0.00 | 30 | 1015.9 |
| 20260831194342 | 100 | 212 | 3.0 | 3.0 | 0.00 | 0.00 | 0.00 | 31 | 1015.9 |
| 20260831193841 | 100 | 255 | 4.0 | 5.0 | 0.00 | 0.00 | 0.00 | 31 | 1015.9 |
| 20260831193337 | 100 | 235 | 3.0 | 4.0 | 0.00 | 0.00 | 0.00 | 31 | 1015.9 |